Location: Holcomb Observatory and Planetarium
(39.8415°N, 86.1714°W)
Time: 08:46:13
(UTC-05:00)

ISS - Visible Passes

Search period start: 15 December 2017 00:00
Search period end: 25 December 2017 00:00
Orbit: 402 x 407 km, 51.6° (Epoch: 15 December)

Date Brightness Start Highest point End Pass type
(mag) Time Alt. Az. Time Alt. Az. Time Alt. Az.
15 Dec -3.8 18:07:00 10° NW 18:10:16 58° NE 18:13:30 10° ESE visible
15 Dec -0.9 19:44:33 10° W 19:46:24 14° SW 19:47:11 13° SW visible
16 Dec -1.7 18:51:29 10° WNW 18:54:19 27° SW 18:57:09 10° SSE visible
17 Dec -3.0 17:58:55 10° WNW 18:02:09 55° SW 18:05:21 10° SE visible
18 Dec -0.3 18:44:51 10° WSW 18:45:55 11° SW 18:47:00 10° SSW visible
19 Dec -0.8 17:51:14 10° W 17:53:50 22° SW 17:56:25 10° S visible
24 Dec 0.0 07:03:12 10° SE 07:04:02 11° SE 07:04:51 10° ESE visible
